Location: Peterborough
(44.3091°N, 78.3197°W)
Time: 04:59:36
(UTC-04:00)

Vanguard 3 - Pass Details

Date: 29 February 2024
Orbit: 510 x 3236 km, 33.3° (Epoch: 12 April)

Event Time Altitude Azimuth Distance (km) Brightness Sun altitude
Rises 19:41:24 0° 235° (SW) 6,333 12.4 -18.7°
Reaches altitude 10° 19:45:22 10° 230° (SW) 5,588 11.9 -19.4°
Maximum altitude 20:02:37 52° 161° (SSE) 3,759 10.2 -22.5°
Enters shadow 20:12:32 31° 108° (ESE) 4,489 10.3 -24.2°
Drops below altitude 10° 20:20:16 10° 93° (E) 5,719 - -25.5°
Sets 20:24:22 0° 89° (E) 6,486 - -26.2°
